Location: Chowchilla Mountain
(37.5599°N, 119.7546°W)
Time: 11:55:41
(UTC+00:00)

IRIDIUM 106 - Pass Details

Date: 05 August 2024
Orbit: 776 x 779 km, 86.4° (Epoch: 15 September)

Event Time Altitude Azimuth Distance (km) Brightness Sun altitude
Rises 12:06:25 0° 186° (S) 3,246 7.2 -11.5°
Reaches altitude 10° 12:08:46 10° 188° (S) 2,323 6.4 -11.1°
Maximum altitude 12:13:57 72° 273° (W) 821 4.3 -10.2°
Drops below altitude 10° 12:19:11 10° 358° (N) 2,339 7.2 -9.4°
Sets 12:21:34 0° 0° (N) 3,271 8.0 -8.9°
